{"data":{"norad_id":53572,"intl_designator":"2022-101AX","name":"STARLINK-4555","alt_names":[],"object_type":"PAYLOAD","status":"ACTIVE","operator":null,"country":"US","launch_date":"2022-08-19","launch_site_code":"AFETR","launch_vehicle":null,"mission":null,"orbit_class":"UNKNOWN","rcs_meters":null,"size_class":null,"mass_kg":null,"dimensions":null,"purposes":["comms"],"wikipedia_slug":null,"has_3d_model":false,"image_url":null,"decayed_at":null,"tle_current":{"epoch":"2026-09-20T11:52:28.543584Z","epoch_age_seconds":79225,"freshness":"FRESH","line1":"1 53572U 22101AX  26263.49477481  .00000596  00000+0  28796-4 0  9996","line2":"2 53572  53.1585 243.5440 0001312  86.2686 273.8467 15.34389468226071","mean_motion":15.34389468,"eccentricity":0.0001312,"inclination_deg":53.1585,"raan_deg":243.544,"arg_perigee_deg":86.2686,"mean_anomaly_deg":273.8467,"bstar":2.8796e-5,"rev_number":22607,"period_min":93.84840224933,"perigee_km":461.83702136314,"apogee_km":463.63206605621,"semimajor_km":6840.8715437097,"source":"CELESTRAK","updated_at":"2026-09-21T09:00:32.931514Z"}}}